[[{"header":{"parameterUnit":"m.s-1","parameterCategory":1,"la1":30.2991,"la2":30.254,"lo1":-89.0895,"lo2":-89.0444,"dy":0.0017,"dx":0.0017,"nx":28,"ny":28,"refTime":"2023-10-01T21:00:00:Z","depth":0,"parameterNumber":2,"parameterNumberName":"U-component_of_WINDS"},"data":[0,0,0,0,0,0,0,0,0,0,0,0,0,0,0,0,0,0,0,0,0,0,0,0,0,0,0,0,0,0,0,0,0,0,0,0,0,0,0,0,0,0,0,0,0,0,0,0,0,0,0,0,0,0,0,0,0,0,-4.4227,-4.4227,0,-4.4263,-4.4264,-4.4264,-4.4114,-4.4109,-4.4105,-4.41,-4.4139,-4.4144,-4.4149,0,0,0,0,0,0,0,0,0,0,0,0,0,-4.4028,-4.4033,-4.4227,-4.4227,-4.4228,-4.4263,-4.4264,-4.4264,-4.4114,-4.4109,-4.4104,-4.4098,-4.4137,-4.4143,-4.415,0,0,0,0,0,0,0,0,0,0,0,0,0,-4.4095,-4.4034,-4.4227,-4.4157,-4.4151,-4.4263,-4.4264,-4.4264,-4.4115,-4.4109,-4.4102,-4.4096,-4.4135,-4.4143,-4.4151,-4.4331,0,0,-4.4174,-4.4178,0,0,0,0,0,0,0,0,-4.4091,-4.4102,-4.4167,-4.4162,-4.4156,-4.4177,-4.4208,-4.4287,-4.4117,-4.4129,-4.41,-4.4093,-4.4157,-4.4163,-4.4184,-4.4333,-4.4335,-4.4175,-4.418,-4.4183,-4.4185,0,0,0,0,0,0,0,-4.4087,-4.41,-4.4241,-4.4168,-4.4161,-4.4124,-4.4127,-4.4222,-4.418,-4.4128,-4.4117,-4.4123,-4.4153,-4.4177,-4.4184,-4.4335,-4.4175,-4.4182,-4.4186,-4.4189,-4.4634,-4.4641,0,0,0,0,0,0,-4.4091,-4.4097,-4.424,-4.4242,-4.4106,-4.4133,-4.4136,-4.4177,-4.4179,-4.4172,-4.4129,-4.4116,-4.4167,-4.4175,-4.4185,-4.4396,-4.4183,-4.419,-4.4195,-4.4627,-4.4636,-4.4643,0,0,0,0,0,0,-4.4088,-4.4105,-4.4238,-4.4167,-4.4181,-4.4144,-4.4191,-4.4181,-4.4205,-4.4179,-4.4171,-4.4161,-4.4162,-4.4174,-4.4296,-4.4395,-4.4194,-4.4201,-4.4618,-4.4629,-4.4639,-4.482,0,0,0,0,0,0,-4.4082,-4.4105,-4.4173,-4.4169,-4.4185,-4.4349,-4.4197,-4.4187,-4.4219,-4.4202,-4.4208,-4.4202,-4.4158,-4.4285,-4.4304,-4.4402,-4.4207,-4.4609,-4.4623,-4.4636,-4.4805,-4.4836,-4.4862,0,0,0,0,0,-4.4076,-4.4223,-4.4177,-4.4195,-4.4269,-4.4355,-4.4364,-4.431,-4.4227,-4.4295,-4.4279,-4.4202,-4.4382,-4.4299,-4.4318,-4.4421,-4.4603,-4.4619,-4.4635,-4.4792,-4.483,-4.4861,0,0,0,0,0,0,-4.424,-4.4221,-4.417,-4.432,-4.4341,-4.433,-4.4414,-4.4351,-4.4396,-4.4378,-4.431,-4.4312,-4.4446,-4.4445,-4.4354,-4.4596,-4.4478,-4.4499,-4.4591,-4.4626,-4.4654,-4.4651,-4.4213,0,0,0,0,0,-4.4293,-4.4364,-4.4344,-4.4478,-4.4491,-4.4452,-4.4487,-4.4443,-4.4461,-4.4469,-4.4461,-4.4482,-4.4543,-4.4585,-4.4639,-4.4805,-4.4804,-4.4885,-4.4913,-4.4937,-4.4955,-4.5042,-4.5078,-4.4696,-4.4696,-4.4696,0,0,-4.4404,-4.4403,-4.4452,-4.4511,-4.4521,-4.4597,-4.4459,-4.4545,-4.46,-4.4482,-4.4596,-4.4592,-4.4611,-4.4755,-4.4818,-4.4759,-4.5061,-4.4957,-4.4976,-4.4982,-4.5063,-4.5099,-4.5131,-4.4707,-4.4705,-4.4703,0,0,-4.4645,-4.4652,-4.4764,-4.4777,-4.4795,-4.4767,-4.4795,-4.4793,-4.4786,-4.4899,-4.4813,-4.4877,-4.4984,-4.5001,-4.5023,-4.5272,-4.5202,-4.5292,-4.544,-4.5525,-4.5555,-4.5582,-4.567,-4.5702,-4.531,-4.5311,-4.5311,0,-4.4781,-4.489,-4.483,-4.4921,-4.4949,-4.4846,-4.496,-4.4976,-4.5011,-4.5033,-4.4966,-4.5097,-4.5102,-4.5249,-4.531,-4.5332,-4.5361,-4.529,-4.5556,-4.5582,-4.5605,-4.5689,-4.5722,-4.5321,-4.532,-4.5319,-4.5318,0,-4.5057,-4.5134,-4.5223,-4.5259,-4.5297,-4.5399,-4.5354,-4.5401,-4.5354,-4.5334,-4.5452,-4.5455,-4.5508,-4.554,-4.5496,-4.5681,-4.5643,-4.5568,-4.5447,-4.5654,-4.5731,-4.5762,-4.5337,-4.5333,-4.533,-4.5327,0,0,-4.5401,-4.5402,-4.5436,-4.545,-4.5462,-4.5521,-4.5619,-4.567,-4.5711,-4.574,-4.5819,-4.5912,-4.5842,-4.5868,-4.5825,-4.59,-4.6096,-4.5815,-4.5814,-4.5866,-4.63,-4.6357,-4.6395,-4.6051,-4.6057,-4.6061,-4.6298,0,-4.5637,-4.5802,-4.5751,-4.5918,-4.5989,-4.5892,-4.5977,-4.5994,-4.5978,-4.6036,-4.6018,-4.6085,-4.5988,-4.6003,-4.6073,-4.6058,-4.6182,-4.604,-4.6124,-4.6128,-4.6122,-4.6435,-4.6495,-4.6718,-4.6328,-4.6333,-4.6337,0,-4.5933,-4.5973,-4.6147,-4.6147,-4.6175,-4.6252,-4.6295,-4.6352,-4.6369,-4.6352,-4.6382,-4.6323,-4.6419,-4.63,-4.6431,-4.6335,-4.6367,-4.6365,-4.6372,-4.6377,-4.6245,-4.6448,-4.6788,-4.6822,-4.6384,-4.638,-4.6377,0,-4.6166,-4.6263,-4.6379,-4.6395,-4.6398,-4.6455,-4.6459,-4.6469,-4.6504,-4.6542,-4.6564,-4.6614,-4.6641,-4.668,-4.6637,-4.6554,-4.6775,-4.6652,-4.6763,-4.6765,-4.6813,-4.6811,-4.7163,-4.6836,-4.6835,-4.6835,-4.6834,0,-4.6434,-4.6545,-4.6484,-4.6556,-4.6677,-4.6617,-4.6738,-4.6731,-4.6742,-4.6811,-4.6731,-4.6798,-4.6736,-4.6797,-4.6764,-4.6878,-4.6891,-4.688,-4.687,-4.6887,-4.6888,-4.6906,-4.6889,-4.6843,-4.6841,-4.684,-4.6838,0,-4.6714,-4.6678,-4.6799,-4.6792,-4.6793,-4.6882,-4.6876,-4.6943,-4.6921,-4.701,-4.7027,-4.6994,-4.7062,-4.7022,-4.7092,-4.7069,-4.7217,-4.7186,-4.7212,-4.7203,-4.7316,-4.7306,-4.7692,-4.7739,-4.7383,-4.7386,-4.7389,0,-4.6887,-4.697,-4.6972,-4.7012,-4.7021,-4.7087,-4.7122,-4.7067,-4.7106,-4.7132,-4.7196,-4.7257,-4.7302,-4.7416,-4.7398,-4.7451,-4.742,-4.7552,-4.7427,-4.7442,-4.7421,-4.7417,-4.7425,-4.7577,-4.7581,-4.7584,-4.7587,0,-4.7198,-4.7176,-4.7229,-4.7276,-4.732,-4.7354,-4.7382,-4.742,-4.7365,-4.7413,-4.7481,-4.7517,-4.7588,-4.765,-4.7695,-4.7699,-4.7635,-4.7626,-4.7655,-4.7673,-4.7684,-4.7679,-4.7279,-4.7618,-4.7614,-4.7612,-4.7611,-4.7609,-4.7429,-4.7498,-4.751,-4.7572,-4.7587,-4.7615,-4.7677,-4.7663,-4.7719,-4.7772,-4.7736,-4.7817,-4.7832,-4.7886,-4.7899,-4.7962,-4.7909,-4.795,-4.7961,-4.7972,-4.7987,-4.7675,-4.797,-4.7969,-4.7968,-4.7967,-4.7967,0,-4.7735,-4.7738,-4.7796,-4.7837,-4.7886,-4.782,-4.7848,-4.7893,-4.7965,-4.7985,-4.8031,-4.811,-4.817,-4.8157,-4.8211,-4.8264,-4.8236,-4.828,-4.8275,-4.8277,-4.8031,-4.8001,-4.8302,-4.8302,-4.8302,-4.8302,-4.8301,-4.8301,-4.79,-4.8013,-4.7993,-4.8112,-4.8114,-4.8193,-4.8214,-4.824,-4.8255,-4.8346,-4.8395,-4.8386,-4.8393,-4.8447,-4.8499,-4.8494,-4.8517,-4.8573,-4.8557,-4.8327,-4.8294,-4.8263,-4.8234,-4.8578,-4.8579,-4.8797,-4.8799,-4.88]},{"header":{"parameterUnit":"m.s-1","parameterCategory":1,"la1":30.2991,"la2":30.254,"lo1":-89.0895,"lo2":-89.0444,"dy":0.0017,"dx":0.0017,"nx":28,"ny":28,"refTime":"2023-10-01T21:00:00:Z","depth":0,"parameterNumber":3,"parameterNumberName":"V-component_of_WINDS"},"data":[0,0,0,0,0,0,0,0,0,0,0,0,0,0,0,0,0,0,0,0,0,0,0,0,0,0,0,0,0,0,0,0,0,0,0,0,0,0,0,0,0,0,0,0,0,0,0,0,0,0,0,0,0,0,0,0,0,0,1.8012,1.8012,0,1.7991,1.7991,1.7991,1.8011,1.8012,1.8013,1.8013,1.7986,1.7984,1.7983,0,0,0,0,0,0,0,0,0,0,0,0,0,1.8064,1.8063,1.8012,1.8012,1.8011,1.7991,1.7991,1.7991,1.8011,1.8012,1.8013,1.8014,1.7986,1.7984,1.7982,0,0,0,0,0,0,0,0,0,0,0,0,0,1.8042,1.8062,1.8012,1.8019,1.802,1.7991,1.7991,1.7991,1.8011,1.8012,1.8013,1.8014,1.7987,1.7984,1.7982,1.7944,0,0,1.7975,1.7974,0,0,0,0,0,0,0,0,1.8043,1.804,1.8018,1.8019,1.8019,1.8005,1.7999,1.7975,1.801,1.8014,1.8013,1.8015,1.7991,1.7988,1.7981,1.7942,1.7941,1.7975,1.7974,1.7973,1.7972,0,0,0,0,0,0,0,1.8044,1.8041,1.8003,1.8018,1.8018,1.8022,1.802,1.7995,1.7995,1.8014,1.8015,1.8013,1.7991,1.7983,1.7981,1.7941,1.7975,1.7973,1.7972,1.7971,1.787,1.7868,0,0,0,0,0,0,1.8046,1.8042,1.8004,1.8003,1.8035,1.802,1.8018,1.8008,1.7996,1.7995,1.8012,1.8014,1.7987,1.7983,1.798,1.7934,1.7973,1.7971,1.7969,1.7871,1.7869,1.7868,0,0,0,0,0,0,1.8047,1.8042,1.8005,1.8023,1.8018,1.8018,1.8007,1.8007,1.8,1.7994,1.7994,1.8004,1.7988,1.7983,1.7953,1.7933,1.797,1.7968,1.7873,1.787,1.7869,1.7841,0,0,0,0,0,0,1.8048,1.8043,1.8029,1.8023,1.8017,1.798,1.8005,1.8006,1.7996,1.7999,1.7987,1.7986,1.7988,1.7956,1.7951,1.7931,1.7966,1.7874,1.7872,1.7869,1.7844,1.7838,1.7834,0,0,0,0,0,1.805,1.802,1.8028,1.8023,1.8001,1.7979,1.7975,1.798,1.7995,1.798,1.7977,1.7987,1.7937,1.7953,1.7947,1.7926,1.7875,1.7872,1.7869,1.7846,1.7839,1.7834,0,0,0,0,0,0,1.8022,1.802,1.8028,1.7996,1.7988,1.7982,1.7964,1.7973,1.7959,1.7961,1.7966,1.7963,1.7931,1.7926,1.7944,1.7888,1.7908,1.7904,1.7892,1.7886,1.7881,1.7882,1.7964,0,0,0,0,0,1.8012,1.7997,1.7995,1.7966,1.7962,1.7964,1.7954,1.7959,1.795,1.7946,1.794,1.7929,1.7911,1.7899,1.7882,1.7844,1.7841,1.7827,1.7822,1.7818,1.7813,1.7792,1.7785,1.7858,1.7858,1.7858,0,0,1.7991,1.7988,1.7977,1.7961,1.7955,1.7937,1.796,1.794,1.7926,1.7942,1.7913,1.791,1.7897,1.7864,1.7848,1.7858,1.7793,1.7814,1.7811,1.7808,1.7788,1.7781,1.7775,1.7856,1.7856,1.7857,0,0,1.7943,1.794,1.7916,1.7911,1.7903,1.7905,1.7899,1.7893,1.7891,1.7864,1.7876,1.7859,1.7827,1.7818,1.781,1.7762,1.7769,1.7756,1.7729,1.7709,1.7703,1.7698,1.7679,1.7672,1.7752,1.7752,1.7752,0,1.7917,1.7892,1.7902,1.7882,1.7873,1.789,1.7865,1.7859,1.7845,1.7838,1.785,1.7812,1.7805,1.7769,1.7758,1.7751,1.7743,1.7756,1.7703,1.7698,1.7694,1.7676,1.7669,1.775,1.775,1.775,1.7751,0,1.786,1.7843,1.7824,1.7813,1.7803,1.778,1.7785,1.7774,1.7781,1.7781,1.7752,1.7745,1.7727,1.772,1.7724,1.7684,1.7691,1.7703,1.7723,1.7685,1.7668,1.7661,1.7748,1.7748,1.7749,1.7749,0,0,1.779,1.7788,1.778,1.7776,1.777,1.7755,1.7733,1.7718,1.7708,1.7698,1.7679,1.7654,1.7666,1.7656,1.766,1.7643,1.7604,1.7657,1.7657,1.7646,1.7558,1.7547,1.7539,1.7611,1.761,1.7609,1.7559,0,1.7742,1.7705,1.7715,1.7678,1.7661,1.7678,1.7659,1.7652,1.7653,1.7637,1.7637,1.7619,1.7637,1.7631,1.7615,1.7612,1.7586,1.7616,1.759,1.7589,1.759,1.7531,1.7519,1.7472,1.7552,1.7551,1.755,0,1.7679,1.7669,1.7632,1.7629,1.7623,1.7605,1.7593,1.7579,1.7572,1.7573,1.7564,1.7572,1.7549,1.7572,1.7539,1.7559,1.755,1.7547,1.7545,1.7541,1.7565,1.7522,1.7457,1.7449,1.7541,1.7541,1.7542,0,1.7629,1.7608,1.7583,1.7578,1.7575,1.7562,1.756,1.7555,1.7545,1.7534,1.7528,1.7514,1.7505,1.7493,1.7497,1.7513,1.7463,1.7486,1.7461,1.7461,1.7447,1.7447,1.7377,1.7445,1.7445,1.7445,1.7445,0,1.7572,1.7548,1.7561,1.7544,1.7518,1.7529,1.7502,1.7501,1.7497,1.748,1.7494,1.7477,1.7485,1.7468,1.7471,1.7443,1.7439,1.7438,1.7439,1.7436,1.7435,1.7427,1.7429,1.7443,1.7444,1.7444,1.7444,0,1.7511,1.7519,1.7492,1.7493,1.7493,1.7473,1.7472,1.7457,1.746,1.7438,1.7434,1.7437,1.7419,1.7423,1.7402,1.7404,1.7368,1.7374,1.7371,1.7371,1.7346,1.7347,1.7265,1.7254,1.7332,1.7331,1.7331,0,1.7473,1.7455,1.7455,1.7446,1.7443,1.7428,1.742,1.7431,1.7421,1.7413,1.7398,1.7382,1.7369,1.7339,1.7338,1.7322,1.7326,1.7299,1.7323,1.7321,1.7323,1.7323,1.7321,1.7293,1.7292,1.7291,1.729,0,1.7403,1.7409,1.7397,1.7387,1.7378,1.737,1.7363,1.7354,1.7364,1.7353,1.7336,1.7326,1.7307,1.729,1.7276,1.7272,1.7281,1.7284,1.7276,1.7271,1.727,1.7268,1.7355,1.7284,1.7285,1.7285,1.7286,1.7286,1.7351,1.7336,1.7334,1.7321,1.7318,1.7312,1.7297,1.73,1.7287,1.7273,1.728,1.726,1.7254,1.7237,1.7231,1.7215,1.7225,1.7215,1.7212,1.7209,1.7205,1.7275,1.7212,1.7213,1.7213,1.7213,1.7213,0,1.728,1.7281,1.7269,1.7261,1.725,1.7265,1.7259,1.7248,1.7231,1.7226,1.7214,1.7194,1.7179,1.7178,1.7163,1.715,1.7154,1.7145,1.7145,1.7143,1.7198,1.7204,1.7142,1.7142,1.7142,1.7142,1.7142,1.7142,1.7242,1.7218,1.7223,1.7197,1.7198,1.718,1.7175,1.7169,1.7165,1.7143,1.7131,1.7132,1.7129,1.7114,1.71,1.71,1.7092,1.7081,1.7083,1.7133,1.714,1.7146,1.7152,1.708,1.708,1.703,1.7029,1.7029]}]]